Overview Statistics Trail Chart Weather Telemetry Raw packets
 

This is the latest recevied weather packets stored in our database for station/object N0KTA-2. If no packets are shown the sender has not sent any weather packets the latest 10 day(s).

<< 45 46 47 48 49 50 51 >>
Time Temp. Humidity Pressure Rain* Wind** Luminosity Snow
1787975903 28.33° C 43% 1011.6 hPa 0 mm - - -
1787975302 28.33° C 44% 1011.6 hPa 0 mm - - -
1787974703 28.33° C 44% 1011.6 hPa 0 mm - - -
1787974103 28.33° C 45% 1011.6 hPa 0 mm - - -
1787973504 28.33° C 45% 1011.6 hPa 0 mm - - -
1787972902 28.33° C 45% 1011.5 hPa 0 mm - - -
1787972303 28.89° C 45% 1011.5 hPa 0 mm - - -
1787971704 28.89° C 44% 1011.3 hPa 0 mm - - -
1787971103 29.44° C 43% 1011.2 hPa 0 mm - - -
1787970502 29.44° C 43% 1011.2 hPa 0 mm - - -
1787969903 29.44° C 42% 1011.1 hPa 0 mm - - -
1787969302 29.44° C 42% 1010.9 hPa 0 mm - - -
1787968704 29.44° C 42% 1010.9 hPa 0 mm - - -
1787968103 29.44° C 43% 1010.8 hPa 0 mm - - -
1787967502 29.44° C 43% 1010.8 hPa 0 mm - - -
1787966904 30° C 44% 1010.7 hPa 0 mm - - -
1787966302 30.56° C 42% 1010.7 hPa 0 mm - - -
1787965702 31.11° C 40% 1010.6 hPa 0 mm - - -
1787965104 32.22° C 41% 1010.7 hPa 0 mm - - -
1787964503 32.78° C 37% 1010.6 hPa 0 mm - - -
1787963903 33.89° C 36% 1010.7 hPa 0 mm - - -
1787963303 33.89° C 35% 1010.6 hPa 0 mm - - -
1787962703 33.89° C 33% 1010.6 hPa 0 mm - - -
1787962110 34.44° C 33% 1010.7 hPa 0 mm - - -
1787961502 34.44° C 31% 1010.9 hPa 0 mm - - -

* Rain latest hour (hover to see other rain measurements)
** Current wind speed in m/s (hover to see current wind gust speed)